Tracking 29892 objects as of 21-Nov-2024
HD Live streaming from Space Station
objects crossing your sky now

STARLINK-1534

Track STARLINK-1534 now!
10-day predictions
STARLINK-1534 is classified as:


NORAD ID: 46030
Int'l Code: 2020-055D
Perigee: 441.0 km
Apogee: 442.8 km
Inclination: 53.0 °
Period: 93.3 minutes
Semi major axis: 6812 km
RCS: Unknown
Launch date: August 7, 2020
Source: United States (US)
Launch site: AIR FORCE EASTERN TEST RANGE (AFETR)
Your satellite tracking list
Your tracking list is empty




NASA's NSSDC Master Catalog

Two Line Element Set (TLE):
1 46030U 20055D   24325.91668981  .01209474  00000-0  23831-1 0  9994
2 46030  53.0499  91.2896 0001352  66.3346 213.5210 15.43842254  5781
Source of the keplerian elements: AFSPC